User: anonymous   Login
Location: Pine Mountain Observatory
(43.7910°N, 120.9377°W)
Time: 07:09:19
(UTC-07:00)
Language:

Cosmos 1867 - Orbit

View from above orbital plane
View from above orbital plane
View from above satellite
View from above satellite

Ground track
Ground track

The orbit data is extracted from the following two-line orbital elements,

1 18187U 87060A   17293.94900112 -.00000115 +00000-0 -54632-5 0  9998
2 18187 065.0105 236.8477 0013725 273.0415 086.9098 14.31089398581764
Epoch (UTC): 20 October 2017 22:46:33
Eccentricity: 0.0013725
inclination: 65.0105°
perigee height: 778 km
apogee height: 798 km
right ascension of ascending node: 236.8477°
argument of perigee: 273.0415°
revolutions per day: 14.31089398
mean anomaly at epoch: 86.9098°
orbit number at epoch: 58176

The dashed part of the orbit path shows where the satellite is in the earth's shadow,  

DLR